Total_Precipitation_Accumulation
0.14 0.12 0.12 0.17 0.16 0.11 0.05 0.02 0.02 0.02 0.03 0.03 0.03 0.03 0.04 0.05 0.05 0.08 0.08 0.07 0.06 0.09 0.21 0.44 0.64 0.74 0.81 0.81 0.74 0.68 0.66 0.67 0.74 0.78 0.79 0.79 0.83 0.86 0.92 0.93 0.90 0.89 0.86 0.88 0.96 1.03 1.02 0.97 0.87
0.16 0.18 0.20 0.23 0.18 0.13 0.06 0.02 0.01 0.01 0.02 0.02 0.02 0.02 0.03 0.04 0.04 0.05 0.09 0.12 0.09 0.10 0.20 0.35 0.60 0.73 0.80 0.82 0.78 0.77 0.81 0.80 0.86 0.87 0.83 0.78 0.81 0.87 0.93 0.90 0.89 0.89 0.87 0.84 0.86 0.88 0.89 0.78 0.68
0.25 0.29 0.29 0.25 0.14 0.10 0.06 0.03 0.01 0.01 0.01 0.02 0.02 0.02 0.03 0.05 0.05 0.06 0.11 0.14 0.13 0.14 0.21 0.40 0.64 0.78 0.82 0.87 0.85 0.84 0.87 0.93 0.95 0.94 0.92 0.90 0.91 0.91 0.94 0.92 0.90 0.85 0.84 0.83 0.83 0.79 0.77 0.73 0.68
0.37 0.41 0.34 0.22 0.08 0.05 0.04 0.03 0.01 0.01 0.01 0.02 0.01 0.02 0.03 0.04 0.05 0.08 0.12 0.19 0.19 0.20 0.26 0.46 0.68 0.83 0.88 0.93 0.92 0.93 0.96 0.97 1.00 0.96 0.94 0.96 1.04 1.02 0.94 0.89 0.90 0.84 0.80 0.80 0.83 0.79 0.77 0.71 0.66
0.50 0.46 0.34 0.16 0.04 0.02 0.02 0.03 0.02 0.01 0.01 0.03 0.02 0.02 0.05 0.04 0.06 0.11 0.16 0.24 0.27 0.28 0.34 0.50 0.73 0.89 0.99 1.05 1.08 1.11 1.13 1.12 1.08 1.02 0.96 0.96 0.99 1.03 0.98 0.88 0.84 0.80 0.79 0.81 0.82 0.79 0.77 0.75 0.69
0.61 0.49 0.29 0.11 0.03 0.03 0.02 0.02 0.02 0.01 0.02 0.04 0.04 0.04 0.06 0.08 0.11 0.14 0.16 0.23 0.29 0.35 0.43 0.62 0.89 1.02 1.08 1.14 1.14 1.22 1.28 1.30 1.26 1.15 1.05 1.03 1.01 0.98 0.98 0.87 0.83 0.84 0.80 0.76 0.75 0.76 0.71 0.70 0.69
0.67 0.48 0.24 0.09 0.05 0.05 0.04 0.02 0.01 0.01 0.02 0.04 0.05 0.06 0.09 0.15 0.19 0.18 0.19 0.24 0.30 0.37 0.49 0.69 0.94 1.08 1.23 1.25 1.20 1.23 1.26 1.33 1.31 1.23 1.14 1.08 1.03 0.97 0.93 0.89 0.83 0.83 0.85 0.81 0.72 0.71 0.73 0.64 0.63
0.70 0.60 0.31 0.12 0.07 0.06 0.06 0.05 0.03 0.03 0.03 0.04 0.06 0.08 0.09 0.16 0.22 0.27 0.30 0.31 0.39 0.46 0.59 0.76 0.94 1.08 1.21 1.30 1.24 1.20 1.22 1.27 1.35 1.30 1.21 1.15 1.11 1.06 0.97 0.86 0.89 0.86 0.82 0.85 0.79 0.73 0.77 0.74 0.65
0.84 0.79 0.40 0.15 0.11 0.08 0.07 0.08 0.05 0.04 0.04 0.06 0.07 0.08 0.10 0.17 0.26 0.35 0.44 0.48 0.52 0.62 0.74 0.87 0.99 1.11 1.25 1.34 1.29 1.31 1.30 1.34 1.41 1.39 1.35 1.28 1.22 1.20 1.09 0.90 0.87 0.92 0.90 0.87 0.87 0.80 0.80 0.80 0.69
0.93 0.74 0.34 0.16 0.15 0.14 0.09 0.09 0.07 0.07 0.07 0.08 0.10 0.13 0.17 0.27 0.38 0.40 0.44 0.50 0.56 0.66 0.81 0.93 1.03 1.16 1.36 1.44 1.46 1.54 1.43 1.37 1.41 1.32 1.32 1.35 1.32 1.35 1.23 1.12 0.99 0.96 0.98 0.99 0.96 0.91 0.88 0.84 0.72
0.77 0.54 0.28 0.18 0.19 0.19 0.14 0.10 0.09 0.11 0.10 0.09 0.12 0.16 0.23 0.33 0.42 0.46 0.47 0.51 0.55 0.66 0.82 0.98 1.12 1.27 1.45 1.48 1.48 1.50 1.49 1.40 1.42 1.40 1.31 1.32 1.40 1.35 1.37 1.32 1.29 1.21 1.14 1.11 1.09 1.07 0.98 0.91 0.83
0.67 0.43 0.29 0.23 0.22 0.24 0.21 0.16 0.14 0.11 0.09 0.09 0.13 0.18 0.25 0.35 0.40 0.44 0.53 0.61 0.66 0.74 0.87 1.03 1.21 1.40 1.58 1.61 1.62 1.53 1.44 1.37 1.32 1.41 1.42 1.38 1.33 1.24 1.17 1.16 1.14 1.13 1.11 1.11 1.13 1.09 1.02 0.99 0.94
0.64 0.45 0.31 0.24 0.23 0.24 0.23 0.20 0.18 0.11 0.07 0.11 0.16 0.23 0.28 0.34 0.38 0.47 0.59 0.69 0.75 0.80 0.91 1.02 1.19 1.37 1.61 1.84 1.82 1.76 1.61 1.46 1.38 1.40 1.43 1.39 1.34 1.26 1.14 1.06 1.09 1.05 1.01 1.01 1.04 0.98 0.92 0.91 0.89
0.57 0.47 0.37 0.29 0.26 0.25 0.26 0.22 0.23 0.14 0.13 0.18 0.22 0.25 0.32 0.37 0.43 0.54 0.62 0.70 0.78 0.85 0.97 1.09 1.22 1.33 1.54 1.81 1.90 1.88 1.79 1.70 1.63 1.49 1.42 1.42 1.43 1.35 1.25 1.11 1.07 1.04 1.01 1.01 0.98 0.95 0.89 0.84 0.78
0.56 0.60 0.48 0.33 0.28 0.27 0.32 0.32 0.26 0.17 0.20 0.22 0.25 0.27 0.33 0.43 0.46 0.53 0.60 0.73 0.85 0.92 1.04 1.19 1.31 1.44 1.52 1.64 1.90 1.97 1.97 1.89 1.81 1.64 1.57 1.56 1.52 1.50 1.44 1.31 1.16 1.03 0.98 1.01 1.04 1.00 0.96 0.88 0.78
0.77 0.85 0.69 0.37 0.30 0.31 0.46 0.42 0.23 0.22 0.29 0.30 0.30 0.33 0.41 0.49 0.52 0.56 0.61 0.76 0.95 1.00 1.08 1.30 1.41 1.51 1.55 1.57 1.82 1.95 2.00 2.07 2.05 1.95 1.80 1.75 1.71 1.66 1.61 1.52 1.39 1.26 1.13 1.05 1.04 1.00 0.95 0.90 0.83
1.10 0.96 0.64 0.41 0.33 0.38 0.48 0.45 0.29 0.27 0.36 0.38 0.38 0.38 0.44 0.54 0.57 0.60 0.64 0.74 0.87 0.95 1.10 1.34 1.46 1.52 1.59 1.61 1.74 1.95 2.00 2.02 2.11 2.20 2.12 1.98 1.95 1.86 1.76 1.65 1.59 1.56 1.43 1.25 1.12 1.06 0.96 0.88 0.83
1.05 0.76 0.53 0.44 0.37 0.41 0.47 0.41 0.32 0.31 0.37 0.37 0.39 0.40 0.43 0.51 0.52 0.60 0.68 0.79 0.86 0.96 1.14 1.37 1.57 1.64 1.69 1.76 1.76 1.91 2.09 2.00 1.93 2.03 2.11 2.14 2.15 2.07 1.99 1.85 1.72 1.72 1.65 1.53 1.36 1.22 1.11 0.98 0.89
0.74 0.72 0.56 0.41 0.39 0.45 0.45 0.43 0.37 0.33 0.35 0.33 0.30 0.35 0.44 0.46 0.49 0.60 0.69 0.83 0.94 1.02 1.14 1.32 1.52 1.63 1.68 1.74 1.72 1.67 1.82 1.93 1.83 1.73 1.87 2.06 2.20 2.32 2.30 2.12 1.97 1.88 1.76 1.58 1.49 1.45 1.36 1.21 1.08
0.80 0.79 0.60 0.43 0.43 0.52 0.51 0.47 0.38 0.32 0.34 0.31 0.29 0.33 0.42 0.46 0.51 0.58 0.66 0.80 0.89 1.01 1.08 1.26 1.49 1.59 1.58 1.56 1.63 1.64 1.67 1.75 1.83 1.79 1.80 1.91 2.12 2.32 2.54 2.44 2.25 2.09 1.95 1.81 1.64 1.56 1.56 1.47 1.28
0.83 0.70 0.56 0.55 0.55 0.63 0.68 0.65 0.40 0.32 0.32 0.32 0.34 0.36 0.44 0.47 0.52 0.56 0.63 0.74 0.86 1.01 1.07 1.11 1.35 1.63 1.65 1.63 1.74 1.79 1.89 1.92 1.90 1.80 1.77 1.85 1.96 2.09 2.20 2.29 2.18 2.17 2.10 2.00 1.86 1.70 1.64 1.67 1.53
0.79 0.45 0.47 0.60 0.81 0.85 0.75 0.93 0.50 0.34 0.33 0.32 0.37 0.43 0.46 0.49 0.52 0.58 0.64 0.75 0.83 0.99 1.17 1.19 1.26 1.51 1.73 1.72 1.71 1.70 1.77 1.77 1.77 1.70 1.62 1.73 1.93 2.03 2.07 2.14 2.15 2.00 1.93 1.87 1.85 1.79 1.66 1.68 1.71
0.62 0.42 0.51 0.70 0.93 0.95 0.73 0.92 0.58 0.35 0.38 0.32 0.31 0.37 0.42 0.46 0.54 0.61 0.67 0.78 0.90 1.04 1.23 1.33 1.37 1.40 1.61 1.68 1.62 1.60 1.61 1.65 1.75 1.75 1.68 1.63 1.78 1.99 2.09 2.08 2.11 2.12 1.97 1.80 1.74 1.78 1.77 1.70 1.66
0.59 0.68 0.84 0.99 1.34 1.39 0.59 0.62 0.61 0.50 0.50 0.39 0.33 0.37 0.40 0.48 0.59 0.63 0.71 0.84 0.99 1.12 1.29 1.40 1.47 1.39 1.45 1.68 1.66 1.54 1.50 1.52 1.62 1.72 1.79 1.77 1.72 1.79 1.94 2.05 2.02 2.02 2.05 1.98 1.81 1.74 1.78 1.72 1.64
0.94 1.37 2.05 2.15 1.98 1.12 0.33 0.40 0.57 0.47 0.46 0.42 0.40 0.43 0.42 0.47 0.58 0.65 0.73 0.87 0.96 1.07 1.21 1.35 1.40 1.41 1.41 1.56 1.66 1.56 1.46 1.46 1.45 1.52 1.63 1.71 1.72 1.68 1.72 1.84 1.90 1.88 1.89 1.95 1.93 1.83 1.78 1.76 1.73
0.98 1.20 1.62 1.55 0.98 0.47 0.27 0.41 0.48 0.40 0.34 0.34 0.36 0.41 0.41 0.42 0.49 0.59 0.68 0.80 0.91 0.94 1.06 1.21 1.31 1.31 1.36 1.49 1.66 1.68 1.54 1.52 1.41 1.41 1.50 1.58 1.59 1.55 1.53 1.59 1.68 1.68 1.64 1.71 1.82 1.82 1.74 1.74 1.76
0.90 0.92 0.84 1.18 0.78 0.51 0.41 0.37 0.38 0.28 0.24 0.28 0.31 0.35 0.40 0.41 0.47 0.53 0.63 0.68 0.74 0.85 0.94 1.05 1.23 1.33 1.34 1.38 1.57 1.77 1.76 1.62 1.50 1.38 1.42 1.49 1.51 1.52 1.54 1.54 1.55 1.50 1.48 1.49 1.54 1.60 1.58 1.62 1.66
0.78 0.87 1.08 1.52 1.25 0.72 0.42 0.37 0.50 0.40 0.35 0.31 0.32 0.34 0.35 0.39 0.49 0.54 0.58 0.61 0.66 0.77 0.85 0.94 1.12 1.27 1.33 1.33 1.40 1.60 1.83 1.77 1.67 1.62 1.46 1.43 1.44 1.47 1.52 1.53 1.52 1.47 1.39 1.42 1.45 1.41 1.35 1.43 1.49
0.83 1.06 1.30 1.40 1.10 0.91 0.59 0.51 0.55 0.47 0.40 0.36 0.34 0.31 0.33 0.36 0.45 0.49 0.52 0.59 0.65 0.72 0.83 0.93 1.04 1.15 1.22 1.24 1.29 1.38 1.60 1.78 1.79 1.74 1.60 1.44 1.42 1.39 1.36 1.40 1.44 1.44 1.38 1.36 1.44 1.41 1.34 1.35 1.37
0.73 0.90 1.14 1.49 1.11 0.74 0.69 0.58 0.39 0.33 0.33 0.32 0.31 0.30 0.31 0.36 0.39 0.44 0.48 0.57 0.62 0.69 0.80 0.87 0.95 1.09 1.17 1.20 1.24 1.31 1.38 1.54 1.75 1.70 1.56 1.40 1.36 1.37 1.37 1.34 1.36 1.37 1.38 1.39 1.42 1.39 1.32 1.32 1.31